Regional Weather Roundup
Issued by NWS Cleveland, OH

Home | Current Version | Previous Version | Text Only | Print | Product List | Glossary Off
Versions: 1 2 3 4 5 6 7 8 9 10 11 12 13 14 15 16 17 18 19 20 21 22 23 24 25 26 27 28 29 30 31 32 33 34 35 36 37 38 39 40 41 42 43 44 45 46 47 48 49 50

000
ASUS41 KCLE 210202
RWRCLE
OHIO REGIONAL WEATHER ROUNDUP
NATIONAL WEATHER SERVICE CLEVELAND, OH
1000 PM EDT WED AUG 20 2014

NOTE: "FAIR" INDICATES FEW OR NO CLOUDS BELOW 12,000 FEET WITH NO
SIGNIFICANT WEATHER AND/OR OBSTRUCTIONS TO VISIBILITY.

OHZ001>008-015>018-024>027-034-035-043-044-210300-
   NORTHWEST OHIO

CITY           SKY/WX    TMP DP  RH WIND       PRES   REMARKS
DEFIANCE       CLEAR     72  67  84 CALM      29.95R
FINDLAY        CLEAR     73  67  81 CALM      29.95R
TOLEDO EXPRESS CLEAR     70  67  90 CALM      29.94R
TOLEDO EXEC    CLEAR     73  64  73 CALM      29.94R
LIMA           CLEAR     72  67  84 SW3       29.97R
$$

OHZ009>014-019>023-028>033-038-089-210300-
   NORTHEAST OHIO

CITY           SKY/WX    TMP DP  RH WIND       PRES   REMARKS
CLE-HOPKINS    PTCLDY    72  65  78 S3        29.95R
CLE-LAKEFRONT  CLEAR     76  67  73 VRB5      29.92R
CUY CO. ARPT   PTCLDY    72  68  88 S7        29.94R
LORAIN-ELYRIA  CLEAR     73  67  81 CALM      29.95R
ASHTABULA      CLEAR     68  66  93 S5        29.96R
AKRON-CANTON   PTCLDY    73  67  81 SW5       29.97R
WOOSTER        CLEAR     68  64  87 CALM      29.97R
MANSFIELD      CLEAR     71  64  78 SW5       29.98R
YOUNGSTOWN     MOCLDY    68  66  93 S5        29.97R
$$

OHZ042-051>053-060>062-070>072-077>081-210300-
  SOUTHWEST OHIO

CITY           SKY/WX    TMP DP  RH WIND       PRES   REMARKS
CINC-COVINGTON MOCLDY    72  68  87 SW5       30.04R
CINC-LUNKEN    PTCLDY    72  69  90 SE5       30.03R
HAMILTON       PTCLDY    72  69  90 VRB3      30.03R
DAYTON         PTCLDY    77  68  73 SW12      30.01R
WRIGHT-PAT AFB CLEAR     76  68  75 SW12      29.99R
DAYTON GENERAL CLEAR     74  68  81 S9        30.00R
WILMINGTON     PTCLDY    72  67  84 SW12      30.02R
$$

OHZ036-037-039>041-045>050-054>059-063>069-073>076-082>088-210300-
  CENTRAL AND SOUTHEAST OHIO

CITY           SKY/WX    TMP DP  RH WIND       PRES   REMARKS
COLUMBUS       PTCLDY    78  65  63 S5        29.97R
OSU AIRPORT    CLEAR     75  64  68 SW5       29.97R
BOLTON FIELD   CLEAR     71  67  85 SW3       29.99R
RICKENBACK AFB CLEAR     75  63  66 S5G16     29.97R
NEWARK         CLEAR     69  68  96 CALM      29.97R FOG
MARION         CLEAR     72  66  81 S3        29.97R
LANCASTER      PTCLDY    70  66  87 S3        29.98R
ZANESVILLE     CLEAR     68  66  93 CALM      29.98R FOG
NEW PHILLY     CLEAR     69  68  96 CALM      29.98R FOG
$$


USA.gov is the U.S. government's official web portal to all federal, state and local government web resources and services.